JST433 YSSY-YMML

Flight info

Callsign JST433
Flight time N/A
Altitude 34000
Route TESAT H65 LEECE Q29 ML
Aircraft A320/M-SDE3FGHIRWY/LB1

Departure

Time 2026-05-08 02:42
Airport Sydney Kingsford Smith International Airport (YSSY)

Arrival

Time N/A
Airport Melbourne Airport (YMML)
Time Latitude Longitude Altitude Speed Heading
2026-05-08 02:22 -33.93634 151.17980 30 ft 0 kts 280°
2026-05-08 02:33 -33.93637 151.18005 30 ft 4 kts 271°
2026-05-08 02:33 -33.93634 151.18036 30 ft 4 kts 241°
2026-05-08 02:34 -33.93620 151.18052 30 ft 1 kts 182°
2026-05-08 02:37 -33.93631 151.18051 30 ft 3 kts 182°
2026-05-08 02:37 -33.93665 151.18050 30 ft 7 kts 182°
2026-05-08 02:37 -33.93720 151.18060 30 ft 10 kts 165°
2026-05-08 02:38 -33.93757 151.18128 30 ft 12 kts 82°
2026-05-08 02:38 -33.93731 151.18236 30 ft 15 kts 73°
2026-05-08 02:38 -33.93700 151.18369 30 ft 18 kts 75°
2026-05-08 02:38 -33.93664 151.18524 30 ft 21 kts 74°
2026-05-08 02:39 -33.93622 151.18695 30 ft 11 kts 72°
2026-05-08 02:39 -33.93602 151.18780 30 ft 12 kts 75°
2026-05-08 02:39 -33.93591 151.18852 30 ft 10 kts 92°
2026-05-08 02:39 -33.93597 151.18891 29 ft 2 kts 103°
2026-05-08 02:40 -33.93610 151.18918 29 ft 5 kts 152°
2026-05-08 02:40 -33.93654 151.18941 28 ft 9 kts 148°
2026-05-08 02:40 -33.93736 151.18973 24 ft 15 kts 171°
2026-05-08 02:40 -33.93768 151.18915 25 ft 0 kts 255°
2026-05-08 02:41 -33.93769 151.18912 25 ft 1 kts 255°
2026-05-08 02:41 -33.93802 151.18768 26 ft 54 kts 254°
2026-05-08 02:41 -33.93979 151.18019 29 ft 127 kts 254°
2026-05-08 02:41 -33.94265 151.16793 257 ft 164 kts 256°
2026-05-08 02:42 -33.94593 151.15433 973 ft 174 kts 253°
2026-05-08 02:42 -33.94944 151.14057 1919 ft 174 kts 246°
2026-05-08 02:42 -33.95652 151.12831 2483 ft 184 kts 231°
2026-05-08 02:42 -33.96236 151.12036 2683 ft 197 kts 229°
2026-05-08 02:43 -33.97233 151.10758 2973 ft 222 kts 220°
2026-05-08 02:43 -33.98637 151.09833 3616 ft 235 kts 204°
2026-05-08 02:43 -34.00160 151.09091 4542 ft 237 kts 203°
2026-05-08 02:43 -34.01683 151.08310 5427 ft 239 kts 204°
2026-05-08 02:44 -34.03209 151.07500 6288 ft 241 kts 204°
2026-05-08 02:44 -34.04758 151.06665 7094 ft 245 kts 205°
2026-05-08 02:44 -34.06322 151.05817 7847 ft 249 kts 205°
2026-05-08 02:44 -34.07913 151.04957 8615 ft 253 kts 206°
2026-05-08 02:45 -34.09531 151.04084 9393 ft 257 kts 206°
2026-05-08 02:45 -34.11183 151.03195 10105 ft 263 kts 206°
2026-05-08 02:45 -34.12903 151.02269 10436 ft 282 kts 206°
2026-05-08 02:45 -34.14765 151.01265 10642 ft 302 kts 206°
2026-05-08 02:46 -34.16686 151.00229 11174 ft 309 kts 206°
2026-05-08 02:46 -34.18659 150.99170 11849 ft 311 kts 206°
2026-05-08 02:46 -34.20641 150.98107 12572 ft 312 kts 206°
2026-05-08 02:46 -34.22630 150.97043 13331 ft 313 kts 206°
2026-05-08 02:47 -34.24621 150.95977 14018 ft 314 kts 207°
2026-05-08 02:47 -34.26622 150.94901 14651 ft 315 kts 207°
2026-05-08 02:47 -34.28630 150.93820 15289 ft 316 kts 207°
2026-05-08 02:47 -34.30644 150.92734 15894 ft 318 kts 206°
2026-05-08 02:48 -34.32668 150.91635 16487 ft 320 kts 207°
2026-05-08 02:48 -34.34701 150.90527 17123 ft 321 kts 207°
2026-05-08 02:48 -34.36744 150.89417 17763 ft 322 kts 207°
2026-05-08 02:48 -34.38795 150.88311 18391 ft 324 kts 206°
2026-05-08 02:49 -34.40855 150.87200 18948 ft 325 kts 206°
2026-05-08 02:49 -34.42926 150.86077 19519 ft 327 kts 207°
2026-05-08 02:49 -34.45007 150.84945 20081 ft 329 kts 207°
2026-05-08 02:49 -34.47101 150.83808 20638 ft 331 kts 207°
2026-05-08 02:50 -34.49211 150.82662 21189 ft 333 kts 207°
2026-05-08 02:50 -34.51330 150.81511 21736 ft 335 kts 207°
2026-05-08 02:50 -34.53462 150.80348 22268 ft 336 kts 208°
2026-05-08 02:50 -34.55443 150.78859 22793 ft 336 kts 219°
2026-05-08 02:51 -34.57117 150.76885 23293 ft 338 kts 229°
2026-05-08 02:51 -34.58526 150.74577 23736 ft 341 kts 232°
2026-05-08 02:51 -34.59935 150.72231 24024 ft 347 kts 232°
2026-05-08 02:51 -34.61351 150.69885 24379 ft 349 kts 232°
2026-05-08 02:52 -34.62792 150.67500 24757 ft 352 kts 232°
2026-05-08 02:52 -34.64243 150.65094 25132 ft 354 kts 232°
2026-05-08 02:52 -34.65704 150.62673 25527 ft 356 kts 232°
2026-05-08 02:52 -34.67173 150.60234 25920 ft 358 kts 232°
2026-05-08 02:53 -34.68646 150.57786 26293 ft 360 kts 232°
2026-05-08 02:53 -34.70126 150.55325 26649 ft 362 kts 232°
2026-05-08 02:53 -34.71614 150.52847 27017 ft 363 kts 232°
2026-05-08 02:53 -34.73107 150.50358 27397 ft 365 kts 232°
2026-05-08 02:54 -34.74603 150.47860 27761 ft 367 kts 232°
2026-05-08 02:54 -34.76107 150.45344 28071 ft 369 kts 232°
2026-05-08 02:54 -34.77623 150.42803 28320 ft 373 kts 232°
2026-05-08 02:54 -34.79154 150.40238 28668 ft 376 kts 232°
2026-05-08 02:55 -34.80693 150.37658 29012 ft 377 kts 232°
2026-05-08 02:55 -34.83788 150.32485 29780 ft 379 kts 232°
2026-05-08 02:55 -34.85338 150.29893 30216 ft 378 kts 232°
2026-05-08 02:56 -34.86878 150.27309 30662 ft 376 kts 232°
2026-05-08 02:56 -34.88412 150.24728 31037 ft 376 kts 232°
2026-05-08 02:56 -34.89941 150.22153 31349 ft 375 kts 232°
2026-05-08 02:56 -34.91470 150.19576 31702 ft 375 kts 232°
2026-05-08 02:57 -34.93001 150.16994 32036 ft 375 kts 233°
2026-05-08 02:57 -34.94536 150.14409 32328 ft 378 kts 233°
2026-05-08 02:57 -34.96087 150.11805 32644 ft 379 kts 233°
2026-05-08 02:57 -34.97637 150.09202 33046 ft 378 kts 232°
2026-05-08 02:58 -34.99180 150.06608 33478 ft 377 kts 232°
2026-05-08 02:58 -35.00716 150.04019 33894 ft 376 kts 233°
2026-05-08 02:58 -35.02229 150.01458 34090 ft 377 kts 233°
2026-05-08 02:59 -35.05302 149.96234 34121 ft 379 kts 233°
2026-05-08 02:59 -35.08388 149.91006 34127 ft 380 kts 233°
2026-05-08 03:00 -35.11477 149.85764 34123 ft 381 kts 233°
2026-05-08 03:00 -35.14565 149.80518 34131 ft 379 kts 233°